TimeCDT,TemperatureF,Dew PointF,Humidity,Sea Level PressureIn,VisibilityMPH,Wind Direction,Wind SpeedMPH,Gust SpeedMPH,PrecipitationIn,Events,Conditions,WindDirDegrees,DateUTC
12:58 AM,69.4,65.5,87,30.03,10.0,Calm,Calm,-,N/A,,Clear,0,2013-06-15 05:58:00
1:58 AM,68.0,64.6,89,30.02,10.0,Calm,Calm,-,N/A,,Clear,0,2013-06-15 06:58:00
2:58 AM,66.9,64.0,90,30.02,10.0,Calm,Calm,-,N/A,,Clear,0,2013-06-15 07:58:00
3:58 AM,66.0,64.0,93,30.01,10.0,Calm,Calm,-,N/A,,Clear,0,2013-06-15 08:58:00
4:58 AM,64.9,63.1,94,30.01,10.0,Calm,Calm,-,N/A,,Clear,0,2013-06-15 09:58:00
5:58 AM,64.0,62.4,94,30.02,10.0,Calm,Calm,-,N/A,,Clear,0,2013-06-15 10:58:00
6:58 AM,67.1,63.9,89,30.03,10.0,Calm,Calm,-,N/A,,Clear,0,2013-06-15 11:58:00
7:58 AM,71.6,65.7,81,30.05,10.0,East,2.3,-,N/A,,Clear,80,2013-06-15 12:58:00
8:58 AM,79.5,64.8,60,30.06,10.0,Variable,2.3,-,N/A,,Clear,0,2013-06-15 13:58:00
9:58 AM,82.2,63.7,53,30.07,10.0,SSE,8.1,-,N/A,,Clear,150,2013-06-15 14:58:00
10:58 AM,84.7,63.7,49,30.06,10.0,SE,5.8,-,N/A,,Clear,130,2013-06-15 15:58:00
11:58 AM,86.0,63.5,47,30.06,10.0,SE,5.8,-,N/A,,Clear,140,2013-06-15 16:58:00
12:58 PM,87.6,62.8,43,30.04,10.0,Variable,5.8,-,N/A,,Clear,0,2013-06-15 17:58:00
1:58 PM,89.2,62.4,41,30.02,10.0,East,8.1,-,N/A,,Partly Cloudy,90,2013-06-15 18:58:00
2:58 PM,88.7,62.6,42,30.01,10.0,Variable,1.2,-,N/A,,Partly Cloudy,0,2013-06-15 19:58:00
5:58 PM,89.6,63.1,41,29.96,10.0,East,4.6,-,N/A,,Clear,100,2013-06-15 22:58:00
6:58 PM,86.9,64.0,46,29.96,10.0,ESE,4.6,-,N/A,,Partly Cloudy,110,2013-06-15 23:58:00
7:58 PM,83.3,65.7,55,29.97,10.0,ESE,4.6,-,N/A,,Overcast,110,2013-06-16 00:58:00
8:58 PM,78.6,68.2,70,29.98,10.0,Calm,Calm,-,N/A,,Mostly Cloudy,0,2013-06-16 01:58:00
9:58 PM,77.2,67.8,73,30.01,10.0,Calm,Calm,-,N/A,,Overcast,0,2013-06-16 02:58:00
10:58 PM,74.3,67.5,79,30.02,10.0,Calm,Calm,-,N/A,,Mostly Cloudy,0,2013-06-16 03:58:00
11:58 PM,72.5,67.5,84,30.01,10.0,Calm,Calm,-,N/A,,Clear,0,2013-06-16 04:58:00